FW5647 Weather Reports


time (UTC)temp
F
wind
direction
speed
knots
gust
knots
rain 1hr
in
rain 24hr
in
rain mn
in
humidity
%
barometer
mb
20260906124542 60 44 0.0 2.6 0.00 0.00 0.00 96 1019.6
20260906123040 59 0 0.0 0.9 0.00 0.00 0.00 96 1019.7
20260906121539 57 0 0.0 0.0 0.00 0.00 0.00 96 1019.6
20260906120045 56 0 0.0 0.0 0.00 0.00 0.00 96 1019.4
20260906114552 56 0 0.0 0.0 0.00 0.00 0.00 96 1019.1
20260906113041 55 0 0.0 0.0 0.00 0.00 0.00 96 1018.9
20260906111541 55 0 0.0 0.0 0.00 0.00 0.00 96 1018.8
20260906110041 55 0 0.0 0.0 0.00 0.00 0.00 96 1018.9
20260906104547 54 0 0.0 0.0 0.00 0.00 0.00 96 1018.7
20260906103041 54 0 0.0 0.0 0.00 0.00 0.00 96 1018.6
20260906101547 55 0 0.0 0.0 0.00 0.00 0.00 96 1018.7
20260906100046 55 0 0.0 0.0 0.00 0.00 0.00 96 1018.5
20260906094558 55 0 0.0 0.0 0.00 0.00 0.00 96 1018.5
20260906093117 55 0 0.0 0.0 0.00 0.00 0.00 96 1018.5
20260906091548 55 0 0.0 0.0 0.00 0.00 0.00 95 1018.5
20260906090043 55 0 0.0 0.0 0.00 0.00 0.00 95 1018.4
20260906084541 56 0 0.0 0.0 0.00 0.00 0.00 95 1018.3
20260906083046 56 0 0.0 0.0 0.00 0.00 0.00 95 1018.3
20260906081548 56 0 0.0 0.0 0.00 0.00 0.00 95 1018.2
20260906080045 56 0 0.0 0.0 0.00 0.00 0.00 95 1018.1
20260906074542 56 0 0.0 0.0 0.00 0.00 0.00 95 1018.0
20260906073041 56 0 0.0 0.0 0.00 0.00 0.00 95 1018.2
20260906071548 56 0 0.0 0.0 0.00 0.00 0.00 95 1018.1
20260906070047 56 0 0.0 0.0 0.00 0.00 0.00 95 1017.9
20260906064541 56 0 0.0 0.0 0.00 0.00 0.00 95 1018.0
20260906063050 56 0 0.0 0.0 0.00 0.00 0.00 95 1018.1
20260906061543 56 0 0.0 0.0 0.00 0.00 0.00 94 1018.1
20260906060048 56 0 0.0 0.0 0.00 0.00 0.00 94 1017.9
20260906054543 56 0 0.0 0.0 0.00 0.00 0.00 94 1017.7
20260906053042 56 0 0.0 0.0 0.00 0.00 0.00 94 1017.6
20260906051558 56 0 0.0 0.0 0.00 0.00 0.00 94 1017.8
20260906050045 57 0 0.0 0.0 0.00 0.00 0.00 93 1018.0
20260906044544 57 0 0.0 0.0 0.00 0.00 0.00 93 1017.9
20260906043041 57 0 0.0 0.0 0.00 0.00 0.00 93 1017.8
20260906041541 58 0 0.0 0.0 0.00 0.00 0.00 92 1017.7
20260906040109 58 0 0.0 0.0 0.00 0.00 0.00 91 1017.6
20260906034541 59 0 0.0 0.0 0.00 0.00 0.00 92 1017.3
20260906033045 60 0 0.0 0.0 0.00 0.00 0.00 91 1017.3
20260906031543 60 0 0.0 0.0 0.00 0.00 0.00 89 1017.4
20260906030043 61 0 0.0 0.0 0.00 0.00 0.00 89 1017.5
20260906024550 62 0 0.0 0.0 0.00 0.00 0.00 87 1017.5
20260906023047 63 0 0.0 0.0 0.00 0.00 0.00 86 1017.3
20260906021547 64 0 0.0 0.0 0.00 0.00 0.00 84 1017.1
20260906020043 65 0 0.0 0.9 0.00 0.00 0.00 83 1017.3
20260906014611 65 0 0.9 3.5 0.00 0.00 0.00 82 1017.0
20260906013047 65 0 0.0 0.0 0.00 0.00 0.00 84 1016.8
20260906011541 65 0 0.0 0.9 0.00 0.00 0.00 85 1016.6
20260906010046 65 0 0.0 1.7 0.00 0.00 0.00 85 1016.3
20260906004547 66 0 0.0 0.0 0.00 0.00 0.00 84 1016.1
20260906003040 67 0 0.0 0.9 0.00 0.00 0.00 82 1016.0
20260906001542 69 0 0.0 0.0 0.00 0.00 0.00 79 1016.0
20260906000047 70 0 0.0 0.9 0.00 0.00 0.00 74 1015.6
20260905234542 71 0 0.0 0.9 0.00 0.00 0.00 72 1015.6
20260905233045 73 0 0.0 1.7 0.00 0.00 0.00 70 1015.7
20260905231543 74 27 0.9 2.6 0.00 0.00 0.00 67 1015.8
20260905230048 77 308 0.0 0.9 0.00 0.00 0.00 65 1015.7
20260905224540 77 356 0.0 1.7 0.00 0.00 0.00 67 1015.6
20260905223043 76 314 0.0 2.6 0.00 0.00 0.00 66 1015.3
20260905221603 77 33 1.7 4.3 0.00 0.00 0.00 64 1015.2
20260905220041 77 53 0.9 2.6 0.00 0.00 0.00 68 1015.4
20260905214542 77 318 0.0 1.7 0.00 0.00 0.00 69 1015.3
20260905213056 77 39 0.0 1.7 0.00 0.00 0.00 68 1015.1
20260905211545 77 291 0.9 3.5 0.00 0.00 0.00 68 1015.1
20260905210050 77 115 0.9 5.2 0.00 0.00 0.00 67 1015.1
20260905204549 79 89 1.7 5.2 0.00 0.00 0.00 64 1015.3
20260905203044 78 63 1.7 5.2 0.00 0.00 0.00 66 1015.2
20260905201551 78 105 2.6 6.1 0.00 0.00 0.00 64 1015.3
20260905200045 78 98 0.9 3.5 0.00 0.00 0.00 67 1015.6
20260905194544 79 356 0.0 2.6 0.00 0.00 0.00 68 1015.6
20260905193044 77 150 0.9 3.5 0.00 0.00 0.00 67 1015.6
20260905191541 77 72 3.5 7.0 0.00 0.00 0.00 68 1015.5
20260905190038 77 39 0.9 5.2 0.00 0.00 0.00 68 1015.8
20260905184552 77 50 1.7 5.2 0.00 0.00 0.00 70 1015.8
20260905183042 77 87 1.7 4.3 0.00 0.00 0.00 71 1016.0
20260905181604 77 32 1.7 4.3 0.00 0.00 0.00 69 1015.9
20260905180046 77 51 1.7 7.0 0.00 0.00 0.00 70 1015.9
20260905174543 77 130 1.7 5.2 0.00 0.00 0.00 71 1015.8
20260905173053 76 121 2.6 5.2 0.00 0.00 0.00 70 1015.8
20260905171547 76 28 2.6 7.0 0.00 0.00 0.00 70 1015.8
20260905170043 77 36 1.7 2.6 0.00 0.00 0.00 70 1016.0
20260905164540 76 202 1.7 5.2 0.00 0.00 0.00 71 1016.1
20260905163042 75 220 2.6 5.2 0.00 0.00 0.00 72 1016.2
20260905161559 75 35 1.7 6.1 0.00 0.00 0.00 74 1016.1
20260905160045 75 143 2.6 7.0 0.00 0.00 0.00 75 1016.3
20260905154544 73 305 1.7 4.3 0.00 0.15 0.00 75 1016.2
20260905153042 73 130 2.6 7.0 0.00 0.15 0.00 76 1016.1
20260905151542 72 46 1.7 4.3 0.00 0.15 0.00 77 1015.9
20260905150041 72 80 2.6 6.1 0.00 0.15 0.00 78 1015.7
20260905144539 71 127 2.6 5.2 0.00 0.31 0.00 81 1015.6
20260905143042 69 116 0.0 3.5 0.00 0.31 0.00 87 1015.4
20260905141541 68 79 0.0 3.5 0.00 0.31 0.00 87 1015.3
20260905140041 68 0 0.0 1.7 0.00 0.31 0.00 87 1015.3
20260905134539 68 103 0.0 2.6 0.00 1.04 0.00 88 1015.3
20260905133039 67 97 1.7 5.2 0.00 1.04 0.00 88 1015.2
20260905131539 67 86 0.9 2.6 0.00 1.04 0.00 89 1015.4
20260905130040 67 0 0.0 0.0 0.00 1.04 0.00 90 1015.6